TimeCST,TemperatureF,Dew PointF,Humidity,Sea Level PressureIn,VisibilityMPH,Wind Direction,Wind SpeedMPH,Gust SpeedMPH,PrecipitationIn,Events,Conditions,WindDirDegrees,DateUTC
12:15 AM,12.2,10.4,92,29.62,10.0,WSW,6.9,-,N/A,,Overcast,240,2014-01-19 06:15:00
12:35 AM,12.2,12.2,100,29.61,10.0,WSW,8.1,-,N/A,,Overcast,250,2014-01-19 06:35:00
12:55 AM,14.0,12.2,93,29.59,10.0,WSW,6.9,-,N/A,,Overcast,240,2014-01-19 06:55:00
1:15 AM,14.0,12.2,93,29.58,10.0,WSW,6.9,-,N/A,,Overcast,240,2014-01-19 07:15:00
1:35 AM,15.8,10.4,79,29.57,7.0,SW,9.2,-,N/A,,Overcast,230,2014-01-19 07:35:00
1:55 AM,15.8,12.2,86,29.56,10.0,SW,6.9,-,N/A,,Overcast,230,2014-01-19 07:55:00
2:15 AM,17.6,12.2,79,29.54,10.0,SW,12.7,18.4,N/A,,Overcast,230,2014-01-19 08:15:00
2:35 AM,17.6,10.4,73,29.52,10.0,WSW,13.8,23.0,N/A,,Overcast,240,2014-01-19 08:35:00
2:55 AM,17.6,8.6,68,29.52,9.0,WSW,8.1,-,N/A,,Overcast,250,2014-01-19 08:55:00
3:15 AM,17.6,12.2,79,29.49,10.0,WSW,11.5,18.4,N/A,,Overcast,250,2014-01-19 09:15:00
3:35 AM,17.6,15.8,93,29.48,10.0,WSW,11.5,-,N/A,,Overcast,240,2014-01-19 09:35:00
3:55 AM,19.4,12.2,74,29.47,10.0,WSW,10.4,19.6,N/A,,Overcast,250,2014-01-19 09:55:00
4:15 AM,19.4,12.2,74,29.47,10.0,WSW,9.2,20.7,N/A,,Overcast,250,2014-01-19 10:15:00
4:35 AM,19.4,14.0,80,29.45,10.0,WSW,11.5,18.4,N/A,,Overcast,250,2014-01-19 10:35:00
4:55 AM,19.4,15.8,86,29.44,10.0,WSW,9.2,17.3,N/A,,Overcast,250,2014-01-19 10:55:00
5:15 AM,19.4,14.0,80,29.43,10.0,WSW,11.5,17.3,N/A,,Overcast,240,2014-01-19 11:15:00
5:35 AM,19.4,17.6,93,29.43,10.0,WSW,9.2,-,N/A,,Overcast,250,2014-01-19 11:35:00
5:55 AM,21.2,15.8,80,29.44,10.0,WSW,6.9,-,N/A,,Overcast,250,2014-01-19 11:55:00
6:15 AM,21.2,12.2,68,29.43,10.0,West,9.2,21.9,N/A,,Overcast,260,2014-01-19 12:15:00
6:35 AM,21.2,15.8,80,29.43,10.0,West,8.1,19.6,N/A,,Overcast,270,2014-01-19 12:35:00
6:55 AM,21.2,19.4,93,29.43,10.0,West,11.5,18.4,N/A,,Overcast,260,2014-01-19 12:55:00
7:15 AM,21.2,17.6,86,29.43,10.0,WSW,12.7,19.6,N/A,,Overcast,250,2014-01-19 13:15:00
7:35 AM,21.2,15.8,80,29.42,10.0,WSW,6.9,17.3,N/A,,Overcast,250,2014-01-19 13:35:00
7:55 AM,21.2,14.0,74,29.43,10.0,West,9.2,18.4,N/A,,Overcast,260,2014-01-19 13:55:00
8:15 AM,21.2,15.8,80,29.43,10.0,West,9.2,-,N/A,,Overcast,260,2014-01-19 14:15:00
8:35 AM,21.2,15.8,80,29.43,10.0,WSW,9.2,16.1,N/A,,Overcast,250,2014-01-19 14:35:00
8:55 AM,23.0,17.6,80,29.44,10.0,WSW,8.1,-,N/A,,Overcast,250,2014-01-19 14:55:00
9:15 AM,23.0,17.6,80,29.43,10.0,WSW,8.1,-,N/A,,Overcast,250,2014-01-19 15:15:00
9:35 AM,24.8,17.6,74,29.45,10.0,West,8.1,16.1,N/A,,Overcast,260,2014-01-19 15:35:00
9:55 AM,24.8,17.6,74,29.44,10.0,WSW,9.2,16.1,N/A,,Overcast,250,2014-01-19 15:55:00
10:15 AM,26.6,17.6,69,29.44,10.0,WSW,9.2,-,N/A,,Overcast,250,2014-01-19 16:15:00
10:35 AM,26.6,19.4,74,29.46,10.0,West,10.4,-,N/A,,Overcast,260,2014-01-19 16:35:00
10:55 AM,26.6,21.2,80,29.46,10.0,West,6.9,16.1,N/A,,Overcast,270,2014-01-19 16:55:00
11:15 AM,26.6,23.0,86,29.45,10.0,West,9.2,-,N/A,,Overcast,260,2014-01-19 17:15:00
11:35 AM,28.4,21.2,74,29.44,10.0,West,8.1,-,N/A,,Overcast,270,2014-01-19 17:35:00
11:55 AM,28.4,21.2,74,29.45,10.0,West,5.8,-,N/A,,Overcast,260,2014-01-19 17:55:00
12:15 PM,28.4,21.2,74,29.44,10.0,West,9.2,-,N/A,,Overcast,260,2014-01-19 18:15:00
12:35 PM,28.4,21.2,74,29.44,10.0,West,9.2,-,N/A,,Overcast,270,2014-01-19 18:35:00
12:55 PM,28.4,21.2,74,29.42,10.0,West,5.8,-,N/A,,Overcast,260,2014-01-19 18:55:00
1:15 PM,28.4,21.2,74,29.42,10.0,WSW,6.9,-,N/A,,Overcast,250,2014-01-19 19:15:00
1:35 PM,28.4,21.2,74,29.41,10.0,West,10.4,16.1,N/A,,Overcast,260,2014-01-19 19:35:00
1:55 PM,28.4,21.2,74,29.42,10.0,WSW,8.1,-,N/A,,Overcast,250,2014-01-19 19:55:00
2:15 PM,28.4,21.2,74,29.42,10.0,WSW,6.9,-,N/A,,Overcast,240,2014-01-19 20:15:00
2:35 PM,28.4,21.2,74,29.42,10.0,SW,11.5,-,N/A,,Overcast,230,2014-01-19 20:35:00
2:55 PM,28.4,21.2,74,29.44,10.0,WSW,8.1,-,N/A,,Overcast,250,2014-01-19 20:55:00
3:15 PM,28.4,21.2,74,29.43,10.0,WSW,4.6,-,N/A,,Overcast,250,2014-01-19 21:15:00
3:35 PM,28.4,21.2,74,29.44,10.0,WSW,4.6,-,N/A,,Overcast,240,2014-01-19 21:35:00
3:55 PM,28.4,21.2,74,29.44,10.0,WSW,4.6,-,N/A,,Overcast,250,2014-01-19 21:55:00
4:15 PM,28.4,21.2,74,29.45,10.0,WSW,5.8,-,N/A,,Overcast,250,2014-01-19 22:15:00
4:35 PM,28.4,21.2,74,29.46,10.0,WSW,5.8,-,N/A,,Overcast,250,2014-01-19 22:35:00
4:55 PM,28.4,23.0,80,29.47,10.0,WSW,4.6,-,N/A,,Overcast,250,2014-01-19 22:55:00
5:15 PM,28.4,24.8,86,29.47,10.0,WSW,5.8,-,N/A,,Overcast,250,2014-01-19 23:15:00
5:35 PM,24.8,17.6,74,29.47,10.0,ENE,20.7,27.6,N/A,,Overcast,70,2014-01-19 23:35:00
5:55 PM,21.2,17.6,86,29.48,10.0,East,19.6,26.5,N/A,,Overcast,80,2014-01-19 23:55:00
6:15 PM,21.2,17.6,86,29.49,10.0,ENE,17.3,25.3,N/A,,Overcast,70,2014-01-20 00:15:00
6:35 PM,21.2,17.6,86,29.51,10.0,ENE,13.8,19.6,N/A,,Overcast,60,2014-01-20 00:35:00
6:55 PM,21.2,17.6,86,29.53,10.0,ENE,13.8,-,N/A,,Overcast,60,2014-01-20 00:55:00
7:15 PM,21.2,19.4,93,29.53,10.0,NE,13.8,-,N/A,,Overcast,50,2014-01-20 01:15:00
7:35 PM,19.4,17.6,93,29.53,8.0,NE,12.7,17.3,N/A,,Overcast,40,2014-01-20 01:35:00
7:55 PM,19.4,17.6,93,29.54,6.0,NE,10.4,-,N/A,,Overcast,40,2014-01-20 01:55:00
8:15 PM,17.6,15.8,93,29.55,4.0,NE,11.5,-,N/A,,Overcast,40,2014-01-20 02:15:00
8:35 PM,17.6,15.8,93,29.55,7.0,NNE,11.5,-,N/A,,Overcast,30,2014-01-20 02:35:00
8:55 PM,17.6,15.8,93,29.56,10.0,NE,10.4,-,N/A,,Overcast,40,2014-01-20 02:55:00
9:15 PM,15.8,10.4,79,29.57,10.0,NE,13.8,18.4,N/A,,Overcast,40,2014-01-20 03:15:00
9:35 PM,15.8,10.4,79,29.58,10.0,NNE,10.4,-,N/A,,Overcast,30,2014-01-20 03:35:00
9:55 PM,15.8,8.6,73,29.59,9.0,NNE,8.1,-,N/A,,Overcast,30,2014-01-20 03:55:00
10:15 PM,15.8,6.8,68,29.60,10.0,NNE,11.5,20.7,N/A,,Overcast,20,2014-01-20 04:15:00
10:35 PM,15.8,6.8,68,29.61,10.0,NNE,10.4,-,N/A,,Overcast,20,2014-01-20 04:35:00
10:55 PM,14.0,6.8,73,29.62,10.0,NNE,9.2,17.3,N/A,,Overcast,20,2014-01-20 04:55:00
11:15 PM,14.0,6.8,73,29.62,10.0,NNE,9.2,-,N/A,,Overcast,20,2014-01-20 05:15:00
11:35 PM,14.0,6.8,73,29.63,10.0,NNE,8.1,-,N/A,,Overcast,20,2014-01-20 05:35:00
11:55 PM,12.2,8.6,85,29.64,10.0,NNE,8.1,-,N/A,,Overcast,20,2014-01-20 05:55:00